Location: Albuquerque Trailhead
(34.7934°N, 106.3736°W)
Time: 11:25:55
(UTC+00:00)

ARIANE 5 R/B - Pass Details

Date: 20 June 2021
Orbit: 748 x 795 km, 98.7° (Epoch: 30 July)

Event Time Altitude Azimuth Distance (km) Brightness Sun altitude
Rises 09:38:12 0° 22° (NNE) 3,200 7.1 -21.6°
Reaches altitude 10° 09:40:39 10° 31° (NNE) 2,273 6.1 -21.3°
Maximum altitude 09:45:17 38° 99° (E) 1,146 3.6 -20.7°
Enters shadow 09:48:34 18° 158° (SSE) 1,808 4.2 -20.3°
